TimeEDT,TemperatureF,Dew PointF,Humidity,Sea Level PressureIn,VisibilityMPH,Wind Direction,Wind SpeedMPH,Gust SpeedMPH,PrecipitationIn,Events,Conditions,WindDirDegrees,DateUTC
12:15 AM,42.6,24.6,49,30.30,10.0,NNW,3.5,-,N/A,,Clear,340,2013-03-29 04:15:00
12:35 AM,43.2,23.2,45,30.30,10.0,Calm,Calm,-,N/A,,Clear,0,2013-03-29 04:35:00
12:55 AM,39.9,24.8,55,30.30,10.0,Calm,Calm,-,N/A,,Clear,0,2013-03-29 04:55:00
1:15 AM,38.8,25.3,58,30.30,10.0,NW,3.5,-,N/A,,Clear,320,2013-03-29 05:15:00
1:35 AM,37.9,25.7,61,30.31,10.0,Calm,Calm,-,N/A,,Clear,0,2013-03-29 05:35:00
1:55 AM,35.8,26.6,69,30.30,10.0,Calm,Calm,-,N/A,,Clear,0,2013-03-29 05:55:00
2:15 AM,38.3,25.7,61,30.30,10.0,Calm,Calm,-,N/A,,Clear,0,2013-03-29 06:15:00
2:35 AM,34.2,26.4,73,30.30,10.0,Calm,Calm,-,N/A,,Clear,0,2013-03-29 06:35:00
2:55 AM,34.5,26.8,73,30.30,10.0,Calm,Calm,-,N/A,,Clear,0,2013-03-29 06:55:00
3:15 AM,32.9,26.6,78,30.30,10.0,Calm,Calm,-,N/A,,Clear,0,2013-03-29 07:15:00
3:35 AM,33.6,27.0,77,30.29,10.0,NW,3.5,-,N/A,,Clear,310,2013-03-29 07:35:00
3:55 AM,32.0,27.3,83,30.29,10.0,Calm,Calm,-,N/A,,Clear,0,2013-03-29 07:55:00
4:15 AM,32.9,27.3,80,30.30,10.0,Calm,Calm,-,N/A,,Clear,0,2013-03-29 08:15:00
4:55 AM,31.3,26.8,83,30.29,10.0,Calm,Calm,-,N/A,,Clear,0,2013-03-29 08:55:00
5:15 AM,31.3,27.0,84,30.29,10.0,Calm,Calm,-,N/A,,Clear,0,2013-03-29 09:15:00
5:35 AM,30.7,27.1,86,30.30,10.0,Calm,Calm,-,N/A,,Clear,0,2013-03-29 09:35:00
5:55 AM,31.3,26.2,82,30.30,10.0,Calm,Calm,-,N/A,,Clear,0,2013-03-29 09:55:00
6:15 AM,30.0,26.2,86,30.30,10.0,Calm,Calm,-,N/A,,Clear,0,2013-03-29 10:15:00
6:35 AM,30.6,27.3,88,30.31,10.0,Calm,Calm,-,N/A,,Clear,0,2013-03-29 10:35:00
6:55 AM,30.9,27.5,87,30.31,10.0,Calm,Calm,-,N/A,,Clear,0,2013-03-29 10:55:00
7:15 AM,30.2,28.2,92,30.32,10.0,Calm,Calm,-,N/A,,Clear,0,2013-03-29 11:15:00
7:35 AM,30.6,28.6,92,30.33,10.0,Calm,Calm,-,N/A,,Clear,0,2013-03-29 11:35:00
7:55 AM,32.0,27.5,83,30.33,10.0,NW,3.5,-,N/A,,Clear,320,2013-03-29 11:55:00
8:15 AM,33.3,27.9,81,30.34,10.0,NW,3.5,-,N/A,,Clear,320,2013-03-29 12:15:00
8:35 AM,35.8,27.9,73,30.34,10.0,Calm,Calm,-,N/A,,Clear,0,2013-03-29 12:35:00
8:55 AM,39.0,28.9,67,30.34,10.0,Calm,Calm,-,N/A,,Clear,0,2013-03-29 12:55:00
9:15 AM,42.1,28.6,59,30.34,10.0,Calm,Calm,-,N/A,,Clear,0,2013-03-29 13:15:00
9:35 AM,44.8,28.6,53,30.34,10.0,Calm,Calm,-,N/A,,Clear,0,2013-03-29 13:35:00
9:55 AM,47.3,28.0,47,30.34,10.0,Calm,Calm,-,N/A,,Clear,0,2013-03-29 13:55:00
10:15 AM,49.8,27.0,41,30.33,10.0,Calm,Calm,-,N/A,,Clear,0,2013-03-29 14:15:00
10:35 AM,52.0,24.3,34,30.33,10.0,Calm,Calm,-,N/A,,Clear,0,2013-03-29 14:35:00
10:55 AM,53.4,23.0,31,30.32,10.0,West,3.5,-,N/A,,Clear,260,2013-03-29 14:55:00
11:15 AM,54.0,22.5,29,30.32,10.0,NNW,6.9,-,N/A,,Clear,340,2013-03-29 15:15:00
11:35 AM,54.3,22.3,29,30.32,10.0,West,5.8,-,N/A,,Clear,280,2013-03-29 15:35:00
11:55 AM,55.0,22.3,28,30.32,10.0,NW,3.5,-,N/A,,Clear,320,2013-03-29 15:55:00
12:15 PM,55.6,21.9,27,30.30,10.0,WNW,5.8,-,N/A,,Clear,290,2013-03-29 16:15:00
12:35 PM,56.5,21.7,26,30.30,10.0,North,4.6,-,N/A,,Clear,360,2013-03-29 16:35:00
12:55 PM,57.0,21.4,25,30.29,10.0,West,4.6,-,N/A,,Clear,270,2013-03-29 16:55:00
1:15 PM,57.6,21.6,25,30.28,10.0,WNW,5.8,-,N/A,,Clear,290,2013-03-29 17:15:00
1:35 PM,58.1,22.6,25,30.27,10.0,West,9.2,-,N/A,,Clear,260,2013-03-29 17:35:00
1:55 PM,58.8,23.4,26,30.26,10.0,NNW,4.6,-,N/A,,Clear,330,2013-03-29 17:55:00
2:15 PM,59.5,22.8,24,30.25,10.0,West,4.6,-,N/A,,Clear,280,2013-03-29 18:15:00
2:35 PM,58.6,22.6,25,30.24,10.0,SSW,5.8,-,N/A,,Clear,210,2013-03-29 18:35:00
2:55 PM,59.9,21.7,23,30.24,10.0,SW,3.5,-,N/A,,Clear,230,2013-03-29 18:55:00
3:15 PM,61.0,21.7,22,30.22,10.0,West,4.6,16.1,N/A,,Scattered Clouds,270,2013-03-29 19:15:00
3:35 PM,61.7,21.7,22,30.21,10.0,Calm,Calm,-,N/A,,Clear,0,2013-03-29 19:35:00
3:55 PM,61.5,22.1,22,30.21,10.0,West,4.6,-,N/A,,Scattered Clouds,270,2013-03-29 19:55:00
4:15 PM,61.7,20.8,21,30.20,10.0,West,8.1,-,N/A,,Scattered Clouds,280,2013-03-29 20:15:00
4:35 PM,60.6,20.8,22,30.20,10.0,NW,5.8,-,N/A,,Clear,310,2013-03-29 20:35:00
4:55 PM,61.2,19.6,20,30.19,10.0,West,5.8,-,N/A,,Clear,280,2013-03-29 20:55:00
5:15 PM,62.2,20.5,20,30.19,10.0,NW,9.2,16.1,N/A,,Clear,320,2013-03-29 21:15:00
5:35 PM,61.0,19.6,20,30.19,10.0,WNW,8.1,-,N/A,,Clear,300,2013-03-29 21:35:00
5:55 PM,60.4,19.0,20,30.19,10.0,WNW,4.6,-,N/A,,Clear,290,2013-03-29 21:55:00
6:15 PM,60.8,19.2,20,30.19,10.0,WNW,4.6,-,N/A,,Clear,300,2013-03-29 22:15:00
6:35 PM,60.3,21.4,22,30.19,10.0,NW,3.5,-,N/A,,Clear,320,2013-03-29 22:35:00
6:55 PM,59.4,20.7,22,30.19,10.0,Calm,Calm,-,N/A,,Clear,0,2013-03-29 22:55:00
7:15 PM,58.1,23.0,26,30.19,10.0,NW,3.5,-,N/A,,Clear,320,2013-03-29 23:15:00
7:35 PM,56.7,23.2,27,30.20,10.0,Calm,Calm,-,N/A,,Clear,0,2013-03-29 23:35:00
7:55 PM,55.6,23.2,29,30.21,10.0,Calm,Calm,-,N/A,,Clear,0,2013-03-29 23:55:00
8:15 PM,53.4,24.4,33,30.21,10.0,Calm,Calm,-,N/A,,Clear,0,2013-03-30 00:15:00
8:35 PM,52.3,25.2,35,30.22,10.0,WSW,3.5,-,N/A,,Clear,240,2013-03-30 00:35:00
8:55 PM,50.5,26.8,40,30.22,10.0,Calm,Calm,-,N/A,,Clear,0,2013-03-30 00:55:00
9:15 PM,49.6,27.9,43,30.22,10.0,Calm,Calm,-,N/A,,Clear,0,2013-03-30 01:15:00
9:35 PM,48.4,28.8,47,30.22,10.0,Calm,Calm,-,N/A,,Clear,0,2013-03-30 01:35:00
9:55 PM,46.9,29.5,51,30.22,10.0,Calm,Calm,-,N/A,,Clear,0,2013-03-30 01:55:00
10:15 PM,47.5,29.1,49,30.22,10.0,Calm,Calm,-,N/A,,Scattered Clouds,0,2013-03-30 02:15:00
10:35 PM,46.6,30.9,54,30.22,10.0,Calm,Calm,-,N/A,,Mostly Cloudy,0,2013-03-30 02:35:00
10:55 PM,46.4,32.0,57,30.22,10.0,Calm,Calm,-,N/A,,Overcast,0,2013-03-30 02:55:00
11:15 PM,47.3,32.0,55,30.22,10.0,Calm,Calm,-,N/A,,Overcast,0,2013-03-30 03:15:00
11:35 PM,46.4,33.6,61,30.22,10.0,Calm,Calm,-,N/A,,Overcast,0,2013-03-30 03:35:00
11:55 PM,46.4,32.2,58,30.22,10.0,Calm,Calm,-,N/A,,Overcast,0,2013-03-30 03:55:00